Skip Page Navigation
NASA JPL Caltech
NASA Logo - Jet Propulsion Laboratory + View the NASA Portal
+ Center for Near-Earth Object Studies
JPL Home Earth Solar System Stars & Galaxies Technology
JPL Solar System Dynamics
BODIES ORBITS EPHEMERIDES TOOLS PHYSICAL DATA DISCOVERY FAQ SITE MAP
JPL Small-Body Database Browser
Search: [ help ]  
117351 (2004 XE63)
Classification: Main-belt Asteroid          SPK-ID: 2117351
Ephemeris | Orbit Diagram | Orbital Elements | Mission Design | Physical Parameters | Discovery Circumstances | Close-Approach Data ]

[ show orbit diagram ]
Orbital Elements at Epoch 2459000.5 (2020-May-31.0) TDB
Reference: JPL 19 (heliocentric ecliptic J2000)
 Element Value Uncertainty (1-sigma)   Units 
e .05701648196590998 4.8771e-08  
a 2.539392912881683 1.7925e-08 au
q 2.394605662660005 1.1901e-07 au
i 13.7490983560424 5.4063e-06 deg
node 241.0164519082653 1.9867e-05 deg
peri 307.9795282944322 4.8649e-05 deg
M 181.7748708712446 4.626e-05 deg
tp 2459732.244924766458
(2022-Jun-01.74492477)
0.00019187 TDB
period 1478.064143949175
4.05
1.565e-05
4.285e-08
d
yr
n .2435618247514833 2.5789e-09 deg/d
Q 2.684180163103361 1.8947e-08 au
  Orbit Determination Parameters
   # obs. used (total)      698  
   data-arc span      6863 days (18.79 yr)  
   first obs. used      2000-11-21  
   last obs. used      2019-09-06  
   planetary ephem.      DE431  
   SB-pert. ephem.      SB431-N16  
   condition code      0  
   norm. resid. RMS      .54656  
   source      ORB  
   producer      Otto Matic  
   solution date      2019-Sep-24 03:16:45  

Additional Information
 Earth MOID = 1.41065 au 
 Jupiter MOID = 2.34891 au 
 T_jup = 3.404 
[ show covariance matrix ]

Ephemeris | Orbit Diagram | Orbital Elements | Mission Design | Physical Parameters | Discovery Circumstances | Close-Approach Data ]

Physical Parameter Table
Parameter Symbol Value Units Sigma Reference Notes
absolute magnitude H 15.2   n/a MPO436563  

117351 (2004 XE63)          Discovered 2004-Dec-09 by CSS at Catalina
Reference: 20051019/Numbers.arcLast Updated: 2005-10-26

[ show close-approach data ]
Ephemeris | Orbit Diagram | Orbital Elements | Mission Design | Physical Parameters | Discovery Circumstances | Close-Approach Data ]
ABOUT SSD CREDITS/AWARDS PRIVACY/COPYRIGHT GLOSSARY LINKS
FirstGov 2020-Aug-12 13:27 UT
(server date/time)  
NASA Home Page
Site Manager:   Ryan S. Park
Webmaster  Alan B. Chamberlin